Index of /20260506/WXO-DD/model_rdps/10km/00/039
Name Last modified Size Description
Parent Directory -
20260506T00Z_MSC_RDPS_AbsoluteVorticity_IsbL-0250_RLatLon0.09_PT039H.grib2 2026-05-06 02:50 591K
20260506T00Z_MSC_RDPS_AbsoluteVorticity_IsbL-0500_RLatLon0.09_PT039H.grib2 2026-05-06 02:50 680K
20260506T00Z_MSC_RDPS_AbsoluteVorticity_IsbL-0700_RLatLon0.09_PT039H.grib2 2026-05-06 02:50 606K
20260506T00Z_MSC_RDPS_AbsoluteVorticity_IsbL-0850_RLatLon0.09_PT039H.grib2 2026-05-06 02:50 785K
20260506T00Z_MSC_RDPS_AirTemp_AGL-120m_RLatLon0.09_PT039H.grib2 2026-05-06 02:50 384K
20260506T00Z_MSC_RDPS_AirTemp_AGL-2m_RLatLon0.09_PT039H.grib2 2026-05-06 02:50 628K
20260506T00Z_MSC_RDPS_AirTemp_AGL-40m_RLatLon0.09_PT039H.grib2 2026-05-06 02:50 396K
20260506T00Z_MSC_RDPS_AirTemp_AGL-80m_RLatLon0.09_PT039H.grib2 2026-05-06 02:50 390K
20260506T00Z_MSC_RDPS_AirTemp_IsbL-0001_RLatLon0.09_PT039H.grib2 2026-05-06 02:50 247K
20260506T00Z_MSC_RDPS_AirTemp_IsbL-0005_RLatLon0.09_PT039H.grib2 2026-05-06 02:50 377K
20260506T00Z_MSC_RDPS_AirTemp_IsbL-0010_RLatLon0.09_PT039H.grib2 2026-05-06 02:50 393K
20260506T00Z_MSC_RDPS_AirTemp_IsbL-0020_RLatLon0.09_PT039H.grib2 2026-05-06 02:50 320K
20260506T00Z_MSC_RDPS_AirTemp_IsbL-0030_RLatLon0.09_PT039H.grib2 2026-05-06 02:50 338K
20260506T00Z_MSC_RDPS_AirTemp_IsbL-0050_RLatLon0.09_PT039H.grib2 2026-05-06 02:50 308K
20260506T00Z_MSC_RDPS_AirTemp_IsbL-0100_RLatLon0.09_PT039H.grib2 2026-05-06 02:50 418K
20260506T00Z_MSC_RDPS_AirTemp_IsbL-0150_RLatLon0.09_PT039H.grib2 2026-05-06 02:50 404K
20260506T00Z_MSC_RDPS_AirTemp_IsbL-0175_RLatLon0.09_PT039H.grib2 2026-05-06 02:50 398K
20260506T00Z_MSC_RDPS_AirTemp_IsbL-0200_RLatLon0.09_PT039H.grib2 2026-05-06 02:50 406K
20260506T00Z_MSC_RDPS_AirTemp_IsbL-0225_RLatLon0.09_PT039H.grib2 2026-05-06 02:50 408K
20260506T00Z_MSC_RDPS_AirTemp_IsbL-0250_RLatLon0.09_PT039H.grib2 2026-05-06 02:50 413K
20260506T00Z_MSC_RDPS_AirTemp_IsbL-0275_RLatLon0.09_PT039H.grib2 2026-05-06 02:50 395K
20260506T00Z_MSC_RDPS_AirTemp_IsbL-0300_RLatLon0.09_PT039H.grib2 2026-05-06 02:50 403K
20260506T00Z_MSC_RDPS_AirTemp_IsbL-0350_RLatLon0.09_PT039H.grib2 2026-05-06 02:50 418K
20260506T00Z_MSC_RDPS_AirTemp_IsbL-0400_RLatLon0.09_PT039H.grib2 2026-05-06 02:50 420K
20260506T00Z_MSC_RDPS_AirTemp_IsbL-0450_RLatLon0.09_PT039H.grib2 2026-05-06 02:50 426K
20260506T00Z_MSC_RDPS_AirTemp_IsbL-0500_RLatLon0.09_PT039H.grib2 2026-05-06 02:50 402K
20260506T00Z_MSC_RDPS_AirTemp_IsbL-0550_RLatLon0.09_PT039H.grib2 2026-05-06 02:50 418K
20260506T00Z_MSC_RDPS_AirTemp_IsbL-0600_RLatLon0.09_PT039H.grib2 2026-05-06 02:50 434K
20260506T00Z_MSC_RDPS_AirTemp_IsbL-0650_RLatLon0.09_PT039H.grib2 2026-05-06 02:50 451K
20260506T00Z_MSC_RDPS_AirTemp_IsbL-0700_RLatLon0.09_PT039H.grib2 2026-05-06 02:50 475K
20260506T00Z_MSC_RDPS_AirTemp_IsbL-0750_RLatLon0.09_PT039H.grib2 2026-05-06 02:50 516K
20260506T00Z_MSC_RDPS_AirTemp_IsbL-0800_RLatLon0.09_PT039H.grib2 2026-05-06 02:50 570K
20260506T00Z_MSC_RDPS_AirTemp_IsbL-0850_RLatLon0.09_PT039H.grib2 2026-05-06 02:50 632K
20260506T00Z_MSC_RDPS_AirTemp_IsbL-0875_RLatLon0.09_PT039H.grib2 2026-05-06 02:50 655K
20260506T00Z_MSC_RDPS_AirTemp_IsbL-0900_RLatLon0.09_PT039H.grib2 2026-05-06 02:50 536K
20260506T00Z_MSC_RDPS_AirTemp_IsbL-0925_RLatLon0.09_PT039H.grib2 2026-05-06 02:50 540K
20260506T00Z_MSC_RDPS_AirTemp_IsbL-0950_RLatLon0.09_PT039H.grib2 2026-05-06 02:50 540K
20260506T00Z_MSC_RDPS_AirTemp_IsbL-0970_RLatLon0.09_PT039H.grib2 2026-05-06 02:50 535K
20260506T00Z_MSC_RDPS_AirTemp_IsbL-0985_RLatLon0.09_PT039H.grib2 2026-05-06 02:50 522K
20260506T00Z_MSC_RDPS_AirTemp_IsbL-1000_RLatLon0.09_PT039H.grib2 2026-05-06 02:50 506K
20260506T00Z_MSC_RDPS_AirTemp_IsbL-1015_RLatLon0.09_PT039H.grib2 2026-05-06 02:50 505K
20260506T00Z_MSC_RDPS_Albedo_Sfc_RLatLon0.09_PT039H.grib2 2026-05-06 02:50 157K
20260506T00Z_MSC_RDPS_CAPE_Sfc_RLatLon0.09_PT039H.grib2 2026-05-06 02:50 1.8M
20260506T00Z_MSC_RDPS_CIN_Sfc_RLatLon0.09_PT039H.grib2 2026-05-06 02:50 1.2M
20260506T00Z_MSC_RDPS_CloudWater_EAtm_RLatLon0.09_PT039H.grib2 2026-05-06 02:50 223K
20260506T00Z_MSC_RDPS_ConvectivePrecip-Accum_Sfc_RLatLon0.09_PT039H.grib2 2026-05-06 02:50 955K
20260506T00Z_MSC_RDPS_DewPointDepression_AGL-2m_RLatLon0.09_PT039H.grib2 2026-05-06 02:50 424K
20260506T00Z_MSC_RDPS_DewPointDepression_IsbL-0001_RLatLon0.09_PT039H.grib2 2026-05-06 02:50 193
20260506T00Z_MSC_RDPS_DewPointDepression_IsbL-0005_RLatLon0.09_PT039H.grib2 2026-05-06 02:50 193
20260506T00Z_MSC_RDPS_DewPointDepression_IsbL-0010_RLatLon0.09_PT039H.grib2 2026-05-06 02:50 193
20260506T00Z_MSC_RDPS_DewPointDepression_IsbL-0020_RLatLon0.09_PT039H.grib2 2026-05-06 02:50 193
20260506T00Z_MSC_RDPS_DewPointDepression_IsbL-0030_RLatLon0.09_PT039H.grib2 2026-05-06 02:50 193
20260506T00Z_MSC_RDPS_DewPointDepression_IsbL-0050_RLatLon0.09_PT039H.grib2 2026-05-06 02:50 112K
20260506T00Z_MSC_RDPS_DewPointDepression_IsbL-0100_RLatLon0.09_PT039H.grib2 2026-05-06 02:50 113K
20260506T00Z_MSC_RDPS_DewPointDepression_IsbL-0150_RLatLon0.09_PT039H.grib2 2026-05-06 02:50 133K
20260506T00Z_MSC_RDPS_DewPointDepression_IsbL-0175_RLatLon0.09_PT039H.grib2 2026-05-06 02:50 170K
20260506T00Z_MSC_RDPS_DewPointDepression_IsbL-0200_RLatLon0.09_PT039H.grib2 2026-05-06 02:50 210K
20260506T00Z_MSC_RDPS_DewPointDepression_IsbL-0225_RLatLon0.09_PT039H.grib2 2026-05-06 02:50 242K
20260506T00Z_MSC_RDPS_DewPointDepression_IsbL-0250_RLatLon0.09_PT039H.grib2 2026-05-06 02:50 290K
20260506T00Z_MSC_RDPS_DewPointDepression_IsbL-0275_RLatLon0.09_PT039H.grib2 2026-05-06 02:50 304K
20260506T00Z_MSC_RDPS_DewPointDepression_IsbL-0300_RLatLon0.09_PT039H.grib2 2026-05-06 02:50 320K
20260506T00Z_MSC_RDPS_DewPointDepression_IsbL-0350_RLatLon0.09_PT039H.grib2 2026-05-06 02:50 328K
20260506T00Z_MSC_RDPS_DewPointDepression_IsbL-0400_RLatLon0.09_PT039H.grib2 2026-05-06 02:50 336K
20260506T00Z_MSC_RDPS_DewPointDepression_IsbL-0450_RLatLon0.09_PT039H.grib2 2026-05-06 02:50 341K
20260506T00Z_MSC_RDPS_DewPointDepression_IsbL-0500_RLatLon0.09_PT039H.grib2 2026-05-06 02:50 346K
20260506T00Z_MSC_RDPS_DewPointDepression_IsbL-0550_RLatLon0.09_PT039H.grib2 2026-05-06 02:50 357K
20260506T00Z_MSC_RDPS_DewPointDepression_IsbL-0600_RLatLon0.09_PT039H.grib2 2026-05-06 02:50 364K
20260506T00Z_MSC_RDPS_DewPointDepression_IsbL-0650_RLatLon0.09_PT039H.grib2 2026-05-06 02:50 366K
20260506T00Z_MSC_RDPS_DewPointDepression_IsbL-0700_RLatLon0.09_PT039H.grib2 2026-05-06 02:50 375K
20260506T00Z_MSC_RDPS_DewPointDepression_IsbL-0750_RLatLon0.09_PT039H.grib2 2026-05-06 02:50 401K
20260506T00Z_MSC_RDPS_DewPointDepression_IsbL-0800_RLatLon0.09_PT039H.grib2 2026-05-06 02:50 446K
20260506T00Z_MSC_RDPS_DewPointDepression_IsbL-0850_RLatLon0.09_PT039H.grib2 2026-05-06 02:50 483K
20260506T00Z_MSC_RDPS_DewPointDepression_IsbL-0875_RLatLon0.09_PT039H.grib2 2026-05-06 02:50 481K
20260506T00Z_MSC_RDPS_DewPointDepression_IsbL-0900_RLatLon0.09_PT039H.grib2 2026-05-06 02:50 473K
20260506T00Z_MSC_RDPS_DewPointDepression_IsbL-0925_RLatLon0.09_PT039H.grib2 2026-05-06 02:50 463K
20260506T00Z_MSC_RDPS_DewPointDepression_IsbL-0950_RLatLon0.09_PT039H.grib2 2026-05-06 02:50 455K
20260506T00Z_MSC_RDPS_DewPointDepression_IsbL-0970_RLatLon0.09_PT039H.grib2 2026-05-06 02:50 451K
20260506T00Z_MSC_RDPS_DewPointDepression_IsbL-0985_RLatLon0.09_PT039H.grib2 2026-05-06 02:50 448K
20260506T00Z_MSC_RDPS_DewPointDepression_IsbL-1000_RLatLon0.09_PT039H.grib2 2026-05-06 02:50 446K
20260506T00Z_MSC_RDPS_DewPointDepression_IsbL-1015_RLatLon0.09_PT039H.grib2 2026-05-06 02:50 436K
20260506T00Z_MSC_RDPS_DewPoint_AGL-2m_RLatLon0.09_PT039H.grib2 2026-05-06 02:50 409K
20260506T00Z_MSC_RDPS_DownwardLongwaveRadiationFlux-Accum_Sfc_RLatLon0.09_PT039H.grib2 2026-05-06 02:50 385K
20260506T00Z_MSC_RDPS_DownwardShortwaveRadiationFlux-Accum_NTAtm_RLatLon0.09_PT039H.grib2 2026-05-06 02:50 142K
20260506T00Z_MSC_RDPS_DownwardShortwaveRadiationFlux-Accum_Sfc_RLatLon0.09_PT039H.grib2 2026-05-06 02:50 560K
20260506T00Z_MSC_RDPS_FreezingRain-Accum1h_Sfc_RLatLon0.09_PT039H.grib2 2026-05-06 02:50 39K
20260506T00Z_MSC_RDPS_FreezingRain-Accum3h_Sfc_RLatLon0.09_PT039H.grib2 2026-05-06 02:50 42K
20260506T00Z_MSC_RDPS_FreezingRain-Accum_Sfc_RLatLon0.09_PT039H.grib2 2026-05-06 02:50 163K
20260506T00Z_MSC_RDPS_GeopotentialHeight_IsbL-0001_RLatLon0.09_PT039H.grib2 2026-05-06 02:50 245K
20260506T00Z_MSC_RDPS_GeopotentialHeight_IsbL-0005_RLatLon0.09_PT039H.grib2 2026-05-06 02:50 340K
20260506T00Z_MSC_RDPS_GeopotentialHeight_IsbL-0010_RLatLon0.09_PT039H.grib2 2026-05-06 02:50 308K
20260506T00Z_MSC_RDPS_GeopotentialHeight_IsbL-0020_RLatLon0.09_PT039H.grib2 2026-05-06 02:50 307K
20260506T00Z_MSC_RDPS_GeopotentialHeight_IsbL-0030_RLatLon0.09_PT039H.grib2 2026-05-06 02:50 309K
20260506T00Z_MSC_RDPS_GeopotentialHeight_IsbL-0050_RLatLon0.09_PT039H.grib2 2026-05-06 02:50 309K
20260506T00Z_MSC_RDPS_GeopotentialHeight_IsbL-0100_RLatLon0.09_PT039H.grib2 2026-05-06 02:50 285K
20260506T00Z_MSC_RDPS_GeopotentialHeight_IsbL-0150_RLatLon0.09_PT039H.grib2 2026-05-06 02:50 226K
20260506T00Z_MSC_RDPS_GeopotentialHeight_IsbL-0175_RLatLon0.09_PT039H.grib2 2026-05-06 02:50 229K
20260506T00Z_MSC_RDPS_GeopotentialHeight_IsbL-0200_RLatLon0.09_PT039H.grib2 2026-05-06 02:50 232K
20260506T00Z_MSC_RDPS_GeopotentialHeight_IsbL-0225_RLatLon0.09_PT039H.grib2 2026-05-06 02:50 265K
20260506T00Z_MSC_RDPS_GeopotentialHeight_IsbL-0250_RLatLon0.09_PT039H.grib2 2026-05-06 02:50 265K
20260506T00Z_MSC_RDPS_GeopotentialHeight_IsbL-0275_RLatLon0.09_PT039H.grib2 2026-05-06 02:50 234K
20260506T00Z_MSC_RDPS_GeopotentialHeight_IsbL-0300_RLatLon0.09_PT039H.grib2 2026-05-06 02:50 234K
20260506T00Z_MSC_RDPS_GeopotentialHeight_IsbL-0350_RLatLon0.09_PT039H.grib2 2026-05-06 02:50 231K
20260506T00Z_MSC_RDPS_GeopotentialHeight_IsbL-0400_RLatLon0.09_PT039H.grib2 2026-05-06 02:50 228K
20260506T00Z_MSC_RDPS_GeopotentialHeight_IsbL-0450_RLatLon0.09_PT039H.grib2 2026-05-06 02:50 295K
20260506T00Z_MSC_RDPS_GeopotentialHeight_IsbL-0500_RLatLon0.09_PT039H.grib2 2026-05-06 02:50 289K
20260506T00Z_MSC_RDPS_GeopotentialHeight_IsbL-0550_RLatLon0.09_PT039H.grib2 2026-05-06 02:50 285K
20260506T00Z_MSC_RDPS_GeopotentialHeight_IsbL-0600_RLatLon0.09_PT039H.grib2 2026-05-06 02:50 282K
20260506T00Z_MSC_RDPS_GeopotentialHeight_IsbL-0650_RLatLon0.09_PT039H.grib2 2026-05-06 02:50 251K
20260506T00Z_MSC_RDPS_GeopotentialHeight_IsbL-0700_RLatLon0.09_PT039H.grib2 2026-05-06 02:50 332K
20260506T00Z_MSC_RDPS_GeopotentialHeight_IsbL-0750_RLatLon0.09_PT039H.grib2 2026-05-06 02:50 334K
20260506T00Z_MSC_RDPS_GeopotentialHeight_IsbL-0800_RLatLon0.09_PT039H.grib2 2026-05-06 02:50 375K
20260506T00Z_MSC_RDPS_GeopotentialHeight_IsbL-0850_RLatLon0.09_PT039H.grib2 2026-05-06 02:50 388K
20260506T00Z_MSC_RDPS_GeopotentialHeight_IsbL-0875_RLatLon0.09_PT039H.grib2 2026-05-06 02:50 392K
20260506T00Z_MSC_RDPS_GeopotentialHeight_IsbL-0900_RLatLon0.09_PT039H.grib2 2026-05-06 02:50 396K
20260506T00Z_MSC_RDPS_GeopotentialHeight_IsbL-0925_RLatLon0.09_PT039H.grib2 2026-05-06 02:50 398K
20260506T00Z_MSC_RDPS_GeopotentialHeight_IsbL-0950_RLatLon0.09_PT039H.grib2 2026-05-06 02:50 401K
20260506T00Z_MSC_RDPS_GeopotentialHeight_IsbL-0970_RLatLon0.09_PT039H.grib2 2026-05-06 02:50 382K
20260506T00Z_MSC_RDPS_GeopotentialHeight_IsbL-0985_RLatLon0.09_PT039H.grib2 2026-05-06 02:50 394K
20260506T00Z_MSC_RDPS_GeopotentialHeight_IsbL-1000_RLatLon0.09_PT039H.grib2 2026-05-06 02:50 409K
20260506T00Z_MSC_RDPS_GeopotentialHeight_IsbL-1015_RLatLon0.09_PT039H.grib2 2026-05-06 02:50 428K
20260506T00Z_MSC_RDPS_HighLowPressure_MSL_RLatLon0.09_PT039H.json 2026-05-06 02:43 21K
20260506T00Z_MSC_RDPS_Humidex_Sfc_RLatLon0.09_PT039H.grib2 2026-05-06 02:50 2.4M
20260506T00Z_MSC_RDPS_IcePellets-Accum1h_Sfc_RLatLon0.09_PT039H.grib2 2026-05-06 02:50 6.4K
20260506T00Z_MSC_RDPS_IcePellets-Accum3h_Sfc_RLatLon0.09_PT039H.grib2 2026-05-06 02:50 7.7K
20260506T00Z_MSC_RDPS_IcePellets-Accum_Sfc_RLatLon0.09_PT039H.grib2 2026-05-06 02:50 24K
20260506T00Z_MSC_RDPS_KIndex_Sfc_RLatLon0.09_PT039H.grib2 2026-05-06 02:50 2.5M
20260506T00Z_MSC_RDPS_LatentHeatNetFlux_Sfc_RLatLon0.09_PT039H.grib2 2026-05-06 02:50 385K
20260506T00Z_MSC_RDPS_LiftedIndex-MU-VT_IsbL-0500_RLatLon0.09_PT039H.grib2 2026-05-06 02:50 2.4M
20260506T00Z_MSC_RDPS_NetLongwaveRadiationFlux-Accum_Sfc_RLatLon0.09_PT039H.grib2 2026-05-06 02:50 516K
20260506T00Z_MSC_RDPS_NetShortwaveRadiationFlux-Accum_Sfc_RLatLon0.09_PT039H.grib2 2026-05-06 02:50 555K
20260506T00Z_MSC_RDPS_PlanetaryBoundaryLayerHeight_Sfc_RLatLon0.09_PT039H.grib2 2026-05-06 02:50 1.2M
20260506T00Z_MSC_RDPS_Precip-Accum1h_Sfc_RLatLon0.09_PT039H.grib2 2026-05-06 02:50 1.4M
20260506T00Z_MSC_RDPS_Precip-Accum3h_Sfc_RLatLon0.09_PT039H.grib2 2026-05-06 02:50 1.5M
20260506T00Z_MSC_RDPS_Precip-Accum_Sfc_RLatLon0.09_PT039H.grib2 2026-05-06 02:50 2.0M
20260506T00Z_MSC_RDPS_PrecipRate_Sfc_RLatLon0.09_PT039H.grib2 2026-05-06 02:50 188K
20260506T00Z_MSC_RDPS_PrecipType-Instant_Sfc_RLatLon0.09_PT039H.grib2 2026-05-06 02:50 601K
20260506T00Z_MSC_RDPS_Pressure-Trend3h_Sfc_RLatLon0.09_PT039H.grib2 2026-05-06 02:50 1.2M
20260506T00Z_MSC_RDPS_Pressure_MSL_RLatLon0.09_PT039H.grib2 2026-05-06 02:50 392K
20260506T00Z_MSC_RDPS_Pressure_PVU-1.5_RLatLon0.09_PT039H.grib2 2026-05-06 02:50 2.5M
20260506T00Z_MSC_RDPS_Pressure_PVU-1_RLatLon0.09_PT039H.grib2 2026-05-06 02:50 2.4M
20260506T00Z_MSC_RDPS_Pressure_PVU-2_RLatLon0.09_PT039H.grib2 2026-05-06 02:50 2.4M
20260506T00Z_MSC_RDPS_Pressure_Sfc_RLatLon0.09_PT039H.grib2 2026-05-06 02:50 499K
20260506T00Z_MSC_RDPS_RadiativeTemp_Sfc_RLatLon0.09_PT039H.grib2 2026-05-06 02:50 318K
20260506T00Z_MSC_RDPS_Rain-Accum1h_Sfc_RLatLon0.09_PT039H.grib2 2026-05-06 02:50 749K
20260506T00Z_MSC_RDPS_Rain-Accum3h_Sfc_RLatLon0.09_PT039H.grib2 2026-05-06 02:50 855K
20260506T00Z_MSC_RDPS_Rain-Accum_Sfc_RLatLon0.09_PT039H.grib2 2026-05-06 02:50 1.6M
20260506T00Z_MSC_RDPS_RelativeHumidity_AGL-2m_RLatLon0.09_PT039H.grib2 2026-05-06 02:50 1.0M
20260506T00Z_MSC_RDPS_RelativeHumidity_IsbL-0010_RLatLon0.09_PT039H.grib2 2026-05-06 02:50 634K
20260506T00Z_MSC_RDPS_RelativeHumidity_IsbL-0020_RLatLon0.09_PT039H.grib2 2026-05-06 02:50 662K
20260506T00Z_MSC_RDPS_RelativeHumidity_IsbL-0030_RLatLon0.09_PT039H.grib2 2026-05-06 02:50 603K
20260506T00Z_MSC_RDPS_RelativeHumidity_IsbL-0050_RLatLon0.09_PT039H.grib2 2026-05-06 02:50 351K
20260506T00Z_MSC_RDPS_RelativeHumidity_IsbL-0100_RLatLon0.09_PT039H.grib2 2026-05-06 02:50 276K
20260506T00Z_MSC_RDPS_RelativeHumidity_IsbL-0150_RLatLon0.09_PT039H.grib2 2026-05-06 02:50 401K
20260506T00Z_MSC_RDPS_RelativeHumidity_IsbL-0175_RLatLon0.09_PT039H.grib2 2026-05-06 02:50 455K
20260506T00Z_MSC_RDPS_RelativeHumidity_IsbL-0200_RLatLon0.09_PT039H.grib2 2026-05-06 02:50 528K
20260506T00Z_MSC_RDPS_RelativeHumidity_IsbL-0225_RLatLon0.09_PT039H.grib2 2026-05-06 02:50 596K
20260506T00Z_MSC_RDPS_RelativeHumidity_IsbL-0250_RLatLon0.09_PT039H.grib2 2026-05-06 02:50 660K
20260506T00Z_MSC_RDPS_RelativeHumidity_IsbL-0275_RLatLon0.09_PT039H.grib2 2026-05-06 02:50 691K
20260506T00Z_MSC_RDPS_RelativeHumidity_IsbL-0300_RLatLon0.09_PT039H.grib2 2026-05-06 02:50 735K
20260506T00Z_MSC_RDPS_RelativeHumidity_IsbL-0350_RLatLon0.09_PT039H.grib2 2026-05-06 02:50 761K
20260506T00Z_MSC_RDPS_RelativeHumidity_IsbL-0400_RLatLon0.09_PT039H.grib2 2026-05-06 02:50 779K
20260506T00Z_MSC_RDPS_RelativeHumidity_IsbL-0450_RLatLon0.09_PT039H.grib2 2026-05-06 02:50 786K
20260506T00Z_MSC_RDPS_RelativeHumidity_IsbL-0500_RLatLon0.09_PT039H.grib2 2026-05-06 02:50 793K
20260506T00Z_MSC_RDPS_RelativeHumidity_IsbL-0550_RLatLon0.09_PT039H.grib2 2026-05-06 02:50 811K
20260506T00Z_MSC_RDPS_RelativeHumidity_IsbL-0600_RLatLon0.09_PT039H.grib2 2026-05-06 02:50 828K
20260506T00Z_MSC_RDPS_RelativeHumidity_IsbL-0650_RLatLon0.09_PT039H.grib2 2026-05-06 02:50 835K
20260506T00Z_MSC_RDPS_RelativeHumidity_IsbL-0700_RLatLon0.09_PT039H.grib2 2026-05-06 02:50 857K
20260506T00Z_MSC_RDPS_RelativeHumidity_IsbL-0750_RLatLon0.09_PT039H.grib2 2026-05-06 02:50 914K
20260506T00Z_MSC_RDPS_RelativeHumidity_IsbL-0800_RLatLon0.09_PT039H.grib2 2026-05-06 02:50 1.0M
20260506T00Z_MSC_RDPS_RelativeHumidity_IsbL-0850_RLatLon0.09_PT039H.grib2 2026-05-06 02:50 1.0M
20260506T00Z_MSC_RDPS_RelativeHumidity_IsbL-0875_RLatLon0.09_PT039H.grib2 2026-05-06 02:50 1.1M
20260506T00Z_MSC_RDPS_RelativeHumidity_IsbL-0900_RLatLon0.09_PT039H.grib2 2026-05-06 02:50 1.1M
20260506T00Z_MSC_RDPS_RelativeHumidity_IsbL-0925_RLatLon0.09_PT039H.grib2 2026-05-06 02:50 1.1M
20260506T00Z_MSC_RDPS_RelativeHumidity_IsbL-0950_RLatLon0.09_PT039H.grib2 2026-05-06 02:50 1.1M
20260506T00Z_MSC_RDPS_RelativeHumidity_IsbL-0970_RLatLon0.09_PT039H.grib2 2026-05-06 02:50 1.1M
20260506T00Z_MSC_RDPS_RelativeHumidity_IsbL-0985_RLatLon0.09_PT039H.grib2 2026-05-06 02:50 1.1M
20260506T00Z_MSC_RDPS_RelativeHumidity_IsbL-1000_RLatLon0.09_PT039H.grib2 2026-05-06 02:50 1.0M
20260506T00Z_MSC_RDPS_RelativeHumidity_IsbL-1015_RLatLon0.09_PT039H.grib2 2026-05-06 02:50 1.0M
20260506T00Z_MSC_RDPS_Runoff-Accum_Sfc_RLatLon0.09_PT039H.grib2 2026-05-06 02:50 67K
20260506T00Z_MSC_RDPS_SWEATIndex_Sfc_RLatLon0.09_PT039H.grib2 2026-05-06 02:50 2.4M
20260506T00Z_MSC_RDPS_SeeingIndex_EAtm_RLatLon0.09_PT039H.grib2 2026-05-06 02:50 1.0M
20260506T00Z_MSC_RDPS_SensibleHeatNetFlux_Sfc_RLatLon0.09_PT039H.grib2 2026-05-06 02:50 268K
20260506T00Z_MSC_RDPS_ShowalterIndex_IsbL-0500_RLatLon0.09_PT039H.grib2 2026-05-06 02:50 2.6M
20260506T00Z_MSC_RDPS_SkyTransparencyIndex_EAtm_RLatLon0.09_PT039H.grib2 2026-05-06 02:50 717K
20260506T00Z_MSC_RDPS_Snow-Accum1h_Sfc_RLatLon0.09_PT039H.grib2 2026-05-06 02:50 521K
20260506T00Z_MSC_RDPS_Snow-Accum3h_Sfc_RLatLon0.09_PT039H.grib2 2026-05-06 02:50 555K
20260506T00Z_MSC_RDPS_Snow-Accum_Sfc_RLatLon0.09_PT039H.grib2 2026-05-06 02:50 749K
20260506T00Z_MSC_RDPS_SnowDensity_Sfc_RLatLon0.09_PT039H.grib2 2026-05-06 02:50 175K
20260506T00Z_MSC_RDPS_SnowDepth_Sfc_RLatLon0.09_PT039H.grib2 2026-05-06 02:50 645K
20260506T00Z_MSC_RDPS_SoilTemp_DBS-0to10cm_RLatLon0.09_PT039H.grib2 2026-05-06 02:50 232K
20260506T00Z_MSC_RDPS_SoilTemp_Sfc_RLatLon0.09_PT039H.grib2 2026-05-06 02:50 286K
20260506T00Z_MSC_RDPS_SoilVolumetricIceContent_Sfc_RLatLon0.09_PT039H.grib2 2026-05-06 02:50 150K
20260506T00Z_MSC_RDPS_SoilVolumetricWaterContent_DBS-0to10cm_RLatLon0.09_PT039H.grib2 2026-05-06 02:50 283K
20260506T00Z_MSC_RDPS_SoilVolumetricWaterContent_DBS-0to1cm_RLatLon0.09_PT039H.grib2 2026-05-06 02:50 342K
20260506T00Z_MSC_RDPS_SpecificHumidity_AGL-120m_RLatLon0.09_PT039H.grib2 2026-05-06 02:50 512K
20260506T00Z_MSC_RDPS_SpecificHumidity_AGL-2m_RLatLon0.09_PT039H.grib2 2026-05-06 02:50 681K
20260506T00Z_MSC_RDPS_SpecificHumidity_AGL-40m_RLatLon0.09_PT039H.grib2 2026-05-06 02:50 517K
20260506T00Z_MSC_RDPS_SpecificHumidity_AGL-80m_RLatLon0.09_PT039H.grib2 2026-05-06 02:50 515K
20260506T00Z_MSC_RDPS_SpecificHumidity_IsbL-0001_RLatLon0.09_PT039H.grib2 2026-05-06 02:50 411K
20260506T00Z_MSC_RDPS_SpecificHumidity_IsbL-0005_RLatLon0.09_PT039H.grib2 2026-05-06 02:50 375K
20260506T00Z_MSC_RDPS_SpecificHumidity_IsbL-0010_RLatLon0.09_PT039H.grib2 2026-05-06 02:50 409K
20260506T00Z_MSC_RDPS_SpecificHumidity_IsbL-0020_RLatLon0.09_PT039H.grib2 2026-05-06 02:50 386K
20260506T00Z_MSC_RDPS_SpecificHumidity_IsbL-0030_RLatLon0.09_PT039H.grib2 2026-05-06 02:50 371K
20260506T00Z_MSC_RDPS_SpecificHumidity_IsbL-0050_RLatLon0.09_PT039H.grib2 2026-05-06 02:50 480K
20260506T00Z_MSC_RDPS_SpecificHumidity_IsbL-0100_RLatLon0.09_PT039H.grib2 2026-05-06 02:50 418K
20260506T00Z_MSC_RDPS_SpecificHumidity_IsbL-0150_RLatLon0.09_PT039H.grib2 2026-05-06 02:50 444K
20260506T00Z_MSC_RDPS_SpecificHumidity_IsbL-0175_RLatLon0.09_PT039H.grib2 2026-05-06 02:50 424K
20260506T00Z_MSC_RDPS_SpecificHumidity_IsbL-0200_RLatLon0.09_PT039H.grib2 2026-05-06 02:50 453K
20260506T00Z_MSC_RDPS_SpecificHumidity_IsbL-0225_RLatLon0.09_PT039H.grib2 2026-05-06 02:50 436K
20260506T00Z_MSC_RDPS_SpecificHumidity_IsbL-0250_RLatLon0.09_PT039H.grib2 2026-05-06 02:50 540K
20260506T00Z_MSC_RDPS_SpecificHumidity_IsbL-0275_RLatLon0.09_PT039H.grib2 2026-05-06 02:50 461K
20260506T00Z_MSC_RDPS_SpecificHumidity_IsbL-0300_RLatLon0.09_PT039H.grib2 2026-05-06 02:50 531K
20260506T00Z_MSC_RDPS_SpecificHumidity_IsbL-0350_RLatLon0.09_PT039H.grib2 2026-05-06 02:50 528K
20260506T00Z_MSC_RDPS_SpecificHumidity_IsbL-0400_RLatLon0.09_PT039H.grib2 2026-05-06 02:50 511K
20260506T00Z_MSC_RDPS_SpecificHumidity_IsbL-0450_RLatLon0.09_PT039H.grib2 2026-05-06 02:50 564K
20260506T00Z_MSC_RDPS_SpecificHumidity_IsbL-0500_RLatLon0.09_PT039H.grib2 2026-05-06 02:50 501K
20260506T00Z_MSC_RDPS_SpecificHumidity_IsbL-0550_RLatLon0.09_PT039H.grib2 2026-05-06 02:50 556K
20260506T00Z_MSC_RDPS_SpecificHumidity_IsbL-0600_RLatLon0.09_PT039H.grib2 2026-05-06 02:50 624K
20260506T00Z_MSC_RDPS_SpecificHumidity_IsbL-0650_RLatLon0.09_PT039H.grib2 2026-05-06 02:50 537K
20260506T00Z_MSC_RDPS_SpecificHumidity_IsbL-0700_RLatLon0.09_PT039H.grib2 2026-05-06 02:50 579K
20260506T00Z_MSC_RDPS_SpecificHumidity_IsbL-0750_RLatLon0.09_PT039H.grib2 2026-05-06 02:50 640K
20260506T00Z_MSC_RDPS_SpecificHumidity_IsbL-0800_RLatLon0.09_PT039H.grib2 2026-05-06 02:50 728K
20260506T00Z_MSC_RDPS_SpecificHumidity_IsbL-0850_RLatLon0.09_PT039H.grib2 2026-05-06 02:50 818K
20260506T00Z_MSC_RDPS_SpecificHumidity_IsbL-0875_RLatLon0.09_PT039H.grib2 2026-05-06 02:50 843K
20260506T00Z_MSC_RDPS_SpecificHumidity_IsbL-0900_RLatLon0.09_PT039H.grib2 2026-05-06 02:50 857K
20260506T00Z_MSC_RDPS_SpecificHumidity_IsbL-0925_RLatLon0.09_PT039H.grib2 2026-05-06 02:50 864K
20260506T00Z_MSC_RDPS_SpecificHumidity_IsbL-0950_RLatLon0.09_PT039H.grib2 2026-05-06 02:50 864K
20260506T00Z_MSC_RDPS_SpecificHumidity_IsbL-0970_RLatLon0.09_PT039H.grib2 2026-05-06 02:50 716K
20260506T00Z_MSC_RDPS_SpecificHumidity_IsbL-0985_RLatLon0.09_PT039H.grib2 2026-05-06 02:50 710K
20260506T00Z_MSC_RDPS_SpecificHumidity_IsbL-1000_RLatLon0.09_PT039H.grib2 2026-05-06 02:50 706K
20260506T00Z_MSC_RDPS_SpecificHumidity_IsbL-1015_RLatLon0.09_PT039H.grib2 2026-05-06 02:50 695K
20260506T00Z_MSC_RDPS_SpecificHumidity_Sfc_RLatLon0.09_PT039H.grib2 2026-05-06 02:50 326K
20260506T00Z_MSC_RDPS_StormRelativeHelicity_EtaL-10000_RLatLon0.09_PT039H.grib2 2026-05-06 02:50 1.1M
20260506T00Z_MSC_RDPS_StormSeverityIndex_EtaL-10000_RLatLon0.09_PT039H.grib2 2026-05-06 02:50 1.1M
20260506T00Z_MSC_RDPS_Thickness_IsbL-0850to0700_RLatLon0.09_PT039H.grib2 2026-05-06 02:50 244K
20260506T00Z_MSC_RDPS_Thickness_IsbL-1000to0500_RLatLon0.09_PT039H.grib2 2026-05-06 02:50 193K
20260506T00Z_MSC_RDPS_Thickness_IsbL-1000to0850_RLatLon0.09_PT039H.grib2 2026-05-06 02:50 264K
20260506T00Z_MSC_RDPS_TotalCloudCover_Sfc_RLatLon0.09_PT039H.grib2 2026-05-06 02:50 665K
20260506T00Z_MSC_RDPS_TotalTotalsIndex_Sfc_RLatLon0.09_PT039H.grib2 2026-05-06 02:50 2.4M
20260506T00Z_MSC_RDPS_UVIndex-ClearSky_Sfc_RLatLon0.09_PT039H.grib2 2026-05-06 02:50 183K
20260506T00Z_MSC_RDPS_UVIndex_Sfc_RLatLon0.09_PT039H.grib2 2026-05-06 02:50 440K
20260506T00Z_MSC_RDPS_UpwardLongwaveRadiationFlux_NTAtm_RLatLon0.09_PT039H.grib2 2026-05-06 02:50 487K
20260506T00Z_MSC_RDPS_UpwardShortwaveRadiationFlux_NTAtm_RLatLon0.09_PT039H.grib2 2026-05-06 02:50 487K
20260506T00Z_MSC_RDPS_VerticalVelocity_IsbL-0250_RLatLon0.09_PT039H.grib2 2026-05-06 02:50 571K
20260506T00Z_MSC_RDPS_VerticalVelocity_IsbL-0500_RLatLon0.09_PT039H.grib2 2026-05-06 02:50 670K
20260506T00Z_MSC_RDPS_VerticalVelocity_IsbL-0700_RLatLon0.09_PT039H.grib2 2026-05-06 02:50 582K
20260506T00Z_MSC_RDPS_VerticalVelocity_IsbL-0850_RLatLon0.09_PT039H.grib2 2026-05-06 02:50 831K
20260506T00Z_MSC_RDPS_VerticalWindShear_EtaL-6500_RLatLon0.09_PT039H.grib2 2026-05-06 02:50 1.2M
20260506T00Z_MSC_RDPS_WindChill_Sfc_RLatLon0.09_PT039H.grib2 2026-05-06 02:50 1.2M
20260506T00Z_MSC_RDPS_WindDir_AGL-10m_RLatLon0.09_PT039H.grib2 2026-05-06 02:50 1.0M
20260506T00Z_MSC_RDPS_WindDir_AGL-120m_RLatLon0.09_PT039H.grib2 2026-05-06 02:50 636K
20260506T00Z_MSC_RDPS_WindDir_AGL-40m_RLatLon0.09_PT039H.grib2 2026-05-06 02:50 662K
20260506T00Z_MSC_RDPS_WindDir_AGL-80m_RLatLon0.09_PT039H.grib2 2026-05-06 02:50 647K
20260506T00Z_MSC_RDPS_WindDir_IsbL-0001_RLatLon0.09_PT039H.grib2 2026-05-06 02:50 291K
20260506T00Z_MSC_RDPS_WindDir_IsbL-0005_RLatLon0.09_PT039H.grib2 2026-05-06 02:50 386K
20260506T00Z_MSC_RDPS_WindDir_IsbL-0010_RLatLon0.09_PT039H.grib2 2026-05-06 02:50 387K
20260506T00Z_MSC_RDPS_WindDir_IsbL-0020_RLatLon0.09_PT039H.grib2 2026-05-06 02:50 414K
20260506T00Z_MSC_RDPS_WindDir_IsbL-0030_RLatLon0.09_PT039H.grib2 2026-05-06 02:50 412K
20260506T00Z_MSC_RDPS_WindDir_IsbL-0050_RLatLon0.09_PT039H.grib2 2026-05-06 02:50 440K
20260506T00Z_MSC_RDPS_WindDir_IsbL-0100_RLatLon0.09_PT039H.grib2 2026-05-06 02:50 415K
20260506T00Z_MSC_RDPS_WindDir_IsbL-0150_RLatLon0.09_PT039H.grib2 2026-05-06 02:50 418K
20260506T00Z_MSC_RDPS_WindDir_IsbL-0175_RLatLon0.09_PT039H.grib2 2026-05-06 02:50 435K
20260506T00Z_MSC_RDPS_WindDir_IsbL-0200_RLatLon0.09_PT039H.grib2 2026-05-06 02:50 451K
20260506T00Z_MSC_RDPS_WindDir_IsbL-0225_RLatLon0.09_PT039H.grib2 2026-05-06 02:50 457K
20260506T00Z_MSC_RDPS_WindDir_IsbL-0250_RLatLon0.09_PT039H.grib2 2026-05-06 02:50 451K
20260506T00Z_MSC_RDPS_WindDir_IsbL-0275_RLatLon0.09_PT039H.grib2 2026-05-06 02:50 473K
20260506T00Z_MSC_RDPS_WindDir_IsbL-0300_RLatLon0.09_PT039H.grib2 2026-05-06 02:50 470K
20260506T00Z_MSC_RDPS_WindDir_IsbL-0350_RLatLon0.09_PT039H.grib2 2026-05-06 02:50 492K
20260506T00Z_MSC_RDPS_WindDir_IsbL-0400_RLatLon0.09_PT039H.grib2 2026-05-06 02:50 504K
20260506T00Z_MSC_RDPS_WindDir_IsbL-0450_RLatLon0.09_PT039H.grib2 2026-05-06 02:50 520K
20260506T00Z_MSC_RDPS_WindDir_IsbL-0500_RLatLon0.09_PT039H.grib2 2026-05-06 02:50 543K
20260506T00Z_MSC_RDPS_WindDir_IsbL-0550_RLatLon0.09_PT039H.grib2 2026-05-06 02:50 558K
20260506T00Z_MSC_RDPS_WindDir_IsbL-0600_RLatLon0.09_PT039H.grib2 2026-05-06 02:50 583K
20260506T00Z_MSC_RDPS_WindDir_IsbL-0650_RLatLon0.09_PT039H.grib2 2026-05-06 02:50 626K
20260506T00Z_MSC_RDPS_WindDir_IsbL-0700_RLatLon0.09_PT039H.grib2 2026-05-06 02:50 673K
20260506T00Z_MSC_RDPS_WindDir_IsbL-0750_RLatLon0.09_PT039H.grib2 2026-05-06 02:50 728K
20260506T00Z_MSC_RDPS_WindDir_IsbL-0800_RLatLon0.09_PT039H.grib2 2026-05-06 02:50 800K
20260506T00Z_MSC_RDPS_WindDir_IsbL-0850_RLatLon0.09_PT039H.grib2 2026-05-06 02:50 876K
20260506T00Z_MSC_RDPS_WindDir_IsbL-0875_RLatLon0.09_PT039H.grib2 2026-05-06 02:50 907K
20260506T00Z_MSC_RDPS_WindDir_IsbL-0900_RLatLon0.09_PT039H.grib2 2026-05-06 02:50 927K
20260506T00Z_MSC_RDPS_WindDir_IsbL-0925_RLatLon0.09_PT039H.grib2 2026-05-06 02:50 941K
20260506T00Z_MSC_RDPS_WindDir_IsbL-0950_RLatLon0.09_PT039H.grib2 2026-05-06 02:50 943K
20260506T00Z_MSC_RDPS_WindDir_IsbL-0970_RLatLon0.09_PT039H.grib2 2026-05-06 02:50 946K
20260506T00Z_MSC_RDPS_WindDir_IsbL-0985_RLatLon0.09_PT039H.grib2 2026-05-06 02:50 954K
20260506T00Z_MSC_RDPS_WindDir_IsbL-1000_RLatLon0.09_PT039H.grib2 2026-05-06 02:50 969K
20260506T00Z_MSC_RDPS_WindDir_IsbL-1015_RLatLon0.09_PT039H.grib2 2026-05-06 02:50 1.0M
20260506T00Z_MSC_RDPS_WindGust-Max_AGL-10m_RLatLon0.09_PT039H.grib2 2026-05-06 02:50 1.0M
20260506T00Z_MSC_RDPS_WindGust-Min_AGL-10m_RLatLon0.09_PT039H.grib2 2026-05-06 02:50 1.0M
20260506T00Z_MSC_RDPS_WindGust_AGL-10m_RLatLon0.09_PT039H.grib2 2026-05-06 02:50 1.0M
20260506T00Z_MSC_RDPS_WindSpeed_AGL-10m_RLatLon0.09_PT039H.grib2 2026-05-06 02:50 845K
20260506T00Z_MSC_RDPS_WindSpeed_AGL-120m_RLatLon0.09_PT039H.grib2 2026-05-06 02:50 542K
20260506T00Z_MSC_RDPS_WindSpeed_AGL-40m_RLatLon0.09_PT039H.grib2 2026-05-06 02:50 543K
20260506T00Z_MSC_RDPS_WindSpeed_AGL-80m_RLatLon0.09_PT039H.grib2 2026-05-06 02:50 541K
20260506T00Z_MSC_RDPS_WindSpeed_IsbL-0001_RLatLon0.09_PT039H.grib2 2026-05-06 02:50 258K
20260506T00Z_MSC_RDPS_WindSpeed_IsbL-0005_RLatLon0.09_PT039H.grib2 2026-05-06 02:50 296K
20260506T00Z_MSC_RDPS_WindSpeed_IsbL-0010_RLatLon0.09_PT039H.grib2 2026-05-06 02:50 399K
20260506T00Z_MSC_RDPS_WindSpeed_IsbL-0020_RLatLon0.09_PT039H.grib2 2026-05-06 02:50 423K
20260506T00Z_MSC_RDPS_WindSpeed_IsbL-0030_RLatLon0.09_PT039H.grib2 2026-05-06 02:50 319K
20260506T00Z_MSC_RDPS_WindSpeed_IsbL-0050_RLatLon0.09_PT039H.grib2 2026-05-06 02:50 344K
20260506T00Z_MSC_RDPS_WindSpeed_IsbL-0100_RLatLon0.09_PT039H.grib2 2026-05-06 02:50 428K
20260506T00Z_MSC_RDPS_WindSpeed_IsbL-0150_RLatLon0.09_PT039H.grib2 2026-05-06 02:50 395K
20260506T00Z_MSC_RDPS_WindSpeed_IsbL-0175_RLatLon0.09_PT039H.grib2 2026-05-06 02:50 418K
20260506T00Z_MSC_RDPS_WindSpeed_IsbL-0200_RLatLon0.09_PT039H.grib2 2026-05-06 02:50 433K
20260506T00Z_MSC_RDPS_WindSpeed_IsbL-0225_RLatLon0.09_PT039H.grib2 2026-05-06 02:50 438K
20260506T00Z_MSC_RDPS_WindSpeed_IsbL-0250_RLatLon0.09_PT039H.grib2 2026-05-06 02:50 437K
20260506T00Z_MSC_RDPS_WindSpeed_IsbL-0275_RLatLon0.09_PT039H.grib2 2026-05-06 02:50 453K
20260506T00Z_MSC_RDPS_WindSpeed_IsbL-0300_RLatLon0.09_PT039H.grib2 2026-05-06 02:50 452K
20260506T00Z_MSC_RDPS_WindSpeed_IsbL-0350_RLatLon0.09_PT039H.grib2 2026-05-06 02:50 467K
20260506T00Z_MSC_RDPS_WindSpeed_IsbL-0400_RLatLon0.09_PT039H.grib2 2026-05-06 02:50 454K
20260506T00Z_MSC_RDPS_WindSpeed_IsbL-0450_RLatLon0.09_PT039H.grib2 2026-05-06 02:50 454K
20260506T00Z_MSC_RDPS_WindSpeed_IsbL-0500_RLatLon0.09_PT039H.grib2 2026-05-06 02:50 573K
20260506T00Z_MSC_RDPS_WindSpeed_IsbL-0550_RLatLon0.09_PT039H.grib2 2026-05-06 02:50 574K
20260506T00Z_MSC_RDPS_WindSpeed_IsbL-0600_RLatLon0.09_PT039H.grib2 2026-05-06 02:50 583K
20260506T00Z_MSC_RDPS_WindSpeed_IsbL-0650_RLatLon0.09_PT039H.grib2 2026-05-06 02:50 645K
20260506T00Z_MSC_RDPS_WindSpeed_IsbL-0700_RLatLon0.09_PT039H.grib2 2026-05-06 02:50 669K
20260506T00Z_MSC_RDPS_WindSpeed_IsbL-0750_RLatLon0.09_PT039H.grib2 2026-05-06 02:50 702K
20260506T00Z_MSC_RDPS_WindSpeed_IsbL-0800_RLatLon0.09_PT039H.grib2 2026-05-06 02:50 755K
20260506T00Z_MSC_RDPS_WindSpeed_IsbL-0850_RLatLon0.09_PT039H.grib2 2026-05-06 02:50 820K
20260506T00Z_MSC_RDPS_WindSpeed_IsbL-0875_RLatLon0.09_PT039H.grib2 2026-05-06 02:50 843K
20260506T00Z_MSC_RDPS_WindSpeed_IsbL-0900_RLatLon0.09_PT039H.grib2 2026-05-06 02:50 858K
20260506T00Z_MSC_RDPS_WindSpeed_IsbL-0925_RLatLon0.09_PT039H.grib2 2026-05-06 02:50 867K
20260506T00Z_MSC_RDPS_WindSpeed_IsbL-0950_RLatLon0.09_PT039H.grib2 2026-05-06 02:50 867K
20260506T00Z_MSC_RDPS_WindSpeed_IsbL-0970_RLatLon0.09_PT039H.grib2 2026-05-06 02:50 860K
20260506T00Z_MSC_RDPS_WindSpeed_IsbL-0985_RLatLon0.09_PT039H.grib2 2026-05-06 02:50 855K
20260506T00Z_MSC_RDPS_WindSpeed_IsbL-1000_RLatLon0.09_PT039H.grib2 2026-05-06 02:50 853K
20260506T00Z_MSC_RDPS_WindSpeed_IsbL-1015_RLatLon0.09_PT039H.grib2 2026-05-06 02:50 845K
20260506T00Z_MSC_RDPS_WindU_AGL-10m_RLatLon0.09_PT039H.grib2 2026-05-06 02:50 437K
20260506T00Z_MSC_RDPS_WindU_AGL-120m_RLatLon0.09_PT039H.grib2 2026-05-06 02:50 539K
20260506T00Z_MSC_RDPS_WindU_AGL-40m_RLatLon0.09_PT039H.grib2 2026-05-06 02:50 541K
20260506T00Z_MSC_RDPS_WindU_AGL-80m_RLatLon0.09_PT039H.grib2 2026-05-06 02:50 540K
20260506T00Z_MSC_RDPS_WindU_IsbL-0001_RLatLon0.09_PT039H.grib2 2026-05-06 02:50 249K
20260506T00Z_MSC_RDPS_WindU_IsbL-0005_RLatLon0.09_PT039H.grib2 2026-05-06 02:50 330K
20260506T00Z_MSC_RDPS_WindU_IsbL-0010_RLatLon0.09_PT039H.grib2 2026-05-06 02:50 299K
20260506T00Z_MSC_RDPS_WindU_IsbL-0020_RLatLon0.09_PT039H.grib2 2026-05-06 02:50 318K
20260506T00Z_MSC_RDPS_WindU_IsbL-0030_RLatLon0.09_PT039H.grib2 2026-05-06 02:50 352K
20260506T00Z_MSC_RDPS_WindU_IsbL-0050_RLatLon0.09_PT039H.grib2 2026-05-06 02:50 342K
20260506T00Z_MSC_RDPS_WindU_IsbL-0100_RLatLon0.09_PT039H.grib2 2026-05-06 02:50 422K
20260506T00Z_MSC_RDPS_WindU_IsbL-0150_RLatLon0.09_PT039H.grib2 2026-05-06 02:50 389K
20260506T00Z_MSC_RDPS_WindU_IsbL-0175_RLatLon0.09_PT039H.grib2 2026-05-06 02:50 411K
20260506T00Z_MSC_RDPS_WindU_IsbL-0200_RLatLon0.09_PT039H.grib2 2026-05-06 02:50 426K
20260506T00Z_MSC_RDPS_WindU_IsbL-0225_RLatLon0.09_PT039H.grib2 2026-05-06 02:50 333K
20260506T00Z_MSC_RDPS_WindU_IsbL-0250_RLatLon0.09_PT039H.grib2 2026-05-06 02:50 332K
20260506T00Z_MSC_RDPS_WindU_IsbL-0275_RLatLon0.09_PT039H.grib2 2026-05-06 02:50 345K
20260506T00Z_MSC_RDPS_WindU_IsbL-0300_RLatLon0.09_PT039H.grib2 2026-05-06 02:50 343K
20260506T00Z_MSC_RDPS_WindU_IsbL-0350_RLatLon0.09_PT039H.grib2 2026-05-06 02:50 353K
20260506T00Z_MSC_RDPS_WindU_IsbL-0400_RLatLon0.09_PT039H.grib2 2026-05-06 02:50 458K
20260506T00Z_MSC_RDPS_WindU_IsbL-0450_RLatLon0.09_PT039H.grib2 2026-05-06 02:50 458K
20260506T00Z_MSC_RDPS_WindU_IsbL-0500_RLatLon0.09_PT039H.grib2 2026-05-06 02:50 460K
20260506T00Z_MSC_RDPS_WindU_IsbL-0550_RLatLon0.09_PT039H.grib2 2026-05-06 02:50 462K
20260506T00Z_MSC_RDPS_WindU_IsbL-0600_RLatLon0.09_PT039H.grib2 2026-05-06 02:50 453K
20260506T00Z_MSC_RDPS_WindU_IsbL-0650_RLatLon0.09_PT039H.grib2 2026-05-06 02:50 471K
20260506T00Z_MSC_RDPS_WindU_IsbL-0700_RLatLon0.09_PT039H.grib2 2026-05-06 02:50 494K
20260506T00Z_MSC_RDPS_WindU_IsbL-0750_RLatLon0.09_PT039H.grib2 2026-05-06 02:50 524K
20260506T00Z_MSC_RDPS_WindU_IsbL-0800_RLatLon0.09_PT039H.grib2 2026-05-06 02:50 568K
20260506T00Z_MSC_RDPS_WindU_IsbL-0850_RLatLon0.09_PT039H.grib2 2026-05-06 02:50 626K
20260506T00Z_MSC_RDPS_WindU_IsbL-0875_RLatLon0.09_PT039H.grib2 2026-05-06 02:50 646K
20260506T00Z_MSC_RDPS_WindU_IsbL-0900_RLatLon0.09_PT039H.grib2 2026-05-06 02:50 657K
20260506T00Z_MSC_RDPS_WindU_IsbL-0925_RLatLon0.09_PT039H.grib2 2026-05-06 02:50 663K
20260506T00Z_MSC_RDPS_WindU_IsbL-0950_RLatLon0.09_PT039H.grib2 2026-05-06 02:50 661K
20260506T00Z_MSC_RDPS_WindU_IsbL-0970_RLatLon0.09_PT039H.grib2 2026-05-06 02:50 656K
20260506T00Z_MSC_RDPS_WindU_IsbL-0985_RLatLon0.09_PT039H.grib2 2026-05-06 02:50 795K
20260506T00Z_MSC_RDPS_WindU_IsbL-1000_RLatLon0.09_PT039H.grib2 2026-05-06 02:50 793K
20260506T00Z_MSC_RDPS_WindU_IsbL-1015_RLatLon0.09_PT039H.grib2 2026-05-06 02:50 788K
20260506T00Z_MSC_RDPS_WindV_AGL-10m_RLatLon0.09_PT039H.grib2 2026-05-06 02:50 433K
20260506T00Z_MSC_RDPS_WindV_AGL-120m_RLatLon0.09_PT039H.grib2 2026-05-06 02:50 536K
20260506T00Z_MSC_RDPS_WindV_AGL-40m_RLatLon0.09_PT039H.grib2 2026-05-06 02:50 537K
20260506T00Z_MSC_RDPS_WindV_AGL-80m_RLatLon0.09_PT039H.grib2 2026-05-06 02:50 536K
20260506T00Z_MSC_RDPS_WindV_IsbL-0001_RLatLon0.09_PT039H.grib2 2026-05-06 02:50 250K
20260506T00Z_MSC_RDPS_WindV_IsbL-0005_RLatLon0.09_PT039H.grib2 2026-05-06 02:50 287K
20260506T00Z_MSC_RDPS_WindV_IsbL-0010_RLatLon0.09_PT039H.grib2 2026-05-06 02:50 301K
20260506T00Z_MSC_RDPS_WindV_IsbL-0020_RLatLon0.09_PT039H.grib2 2026-05-06 02:50 319K
20260506T00Z_MSC_RDPS_WindV_IsbL-0030_RLatLon0.09_PT039H.grib2 2026-05-06 02:50 314K
20260506T00Z_MSC_RDPS_WindV_IsbL-0050_RLatLon0.09_PT039H.grib2 2026-05-06 02:50 338K
20260506T00Z_MSC_RDPS_WindV_IsbL-0100_RLatLon0.09_PT039H.grib2 2026-05-06 02:50 418K
20260506T00Z_MSC_RDPS_WindV_IsbL-0150_RLatLon0.09_PT039H.grib2 2026-05-06 02:50 386K
20260506T00Z_MSC_RDPS_WindV_IsbL-0175_RLatLon0.09_PT039H.grib2 2026-05-06 02:50 409K
20260506T00Z_MSC_RDPS_WindV_IsbL-0200_RLatLon0.09_PT039H.grib2 2026-05-06 02:50 330K
20260506T00Z_MSC_RDPS_WindV_IsbL-0225_RLatLon0.09_PT039H.grib2 2026-05-06 02:50 358K
20260506T00Z_MSC_RDPS_WindV_IsbL-0250_RLatLon0.09_PT039H.grib2 2026-05-06 02:50 357K
20260506T00Z_MSC_RDPS_WindV_IsbL-0275_RLatLon0.09_PT039H.grib2 2026-05-06 02:50 369K
20260506T00Z_MSC_RDPS_WindV_IsbL-0300_RLatLon0.09_PT039H.grib2 2026-05-06 02:50 366K
20260506T00Z_MSC_RDPS_WindV_IsbL-0350_RLatLon0.09_PT039H.grib2 2026-05-06 02:50 352K
20260506T00Z_MSC_RDPS_WindV_IsbL-0400_RLatLon0.09_PT039H.grib2 2026-05-06 02:50 356K
20260506T00Z_MSC_RDPS_WindV_IsbL-0450_RLatLon0.09_PT039H.grib2 2026-05-06 02:50 458K
20260506T00Z_MSC_RDPS_WindV_IsbL-0500_RLatLon0.09_PT039H.grib2 2026-05-06 02:50 459K
20260506T00Z_MSC_RDPS_WindV_IsbL-0550_RLatLon0.09_PT039H.grib2 2026-05-06 02:50 460K
20260506T00Z_MSC_RDPS_WindV_IsbL-0600_RLatLon0.09_PT039H.grib2 2026-05-06 02:50 468K
20260506T00Z_MSC_RDPS_WindV_IsbL-0650_RLatLon0.09_PT039H.grib2 2026-05-06 02:50 484K
20260506T00Z_MSC_RDPS_WindV_IsbL-0700_RLatLon0.09_PT039H.grib2 2026-05-06 02:50 505K
20260506T00Z_MSC_RDPS_WindV_IsbL-0750_RLatLon0.09_PT039H.grib2 2026-05-06 02:50 517K
20260506T00Z_MSC_RDPS_WindV_IsbL-0800_RLatLon0.09_PT039H.grib2 2026-05-06 02:50 563K
20260506T00Z_MSC_RDPS_WindV_IsbL-0850_RLatLon0.09_PT039H.grib2 2026-05-06 02:50 621K
20260506T00Z_MSC_RDPS_WindV_IsbL-0875_RLatLon0.09_PT039H.grib2 2026-05-06 02:50 642K
20260506T00Z_MSC_RDPS_WindV_IsbL-0900_RLatLon0.09_PT039H.grib2 2026-05-06 02:50 653K
20260506T00Z_MSC_RDPS_WindV_IsbL-0925_RLatLon0.09_PT039H.grib2 2026-05-06 02:50 660K
20260506T00Z_MSC_RDPS_WindV_IsbL-0950_RLatLon0.09_PT039H.grib2 2026-05-06 02:50 658K
20260506T00Z_MSC_RDPS_WindV_IsbL-0970_RLatLon0.09_PT039H.grib2 2026-05-06 02:50 654K
20260506T00Z_MSC_RDPS_WindV_IsbL-0985_RLatLon0.09_PT039H.grib2 2026-05-06 02:50 790K
20260506T00Z_MSC_RDPS_WindV_IsbL-1000_RLatLon0.09_PT039H.grib2 2026-05-06 02:50 788K
20260506T00Z_MSC_RDPS_WindV_IsbL-1015_RLatLon0.09_PT039H.grib2 2026-05-06 02:50 828K